Content
SEND FEEDBACK

Daily
Averages
Monthly
Summary
Turkmenistan

ASHGABAT, TURKMENISTAN


Home > Asia > Turkmenistan
Elevation: 775 feet     Latitude: 37 58N     Longitude: 058 20E

WEATHER
 
SELECT A DAY
Number of Records: 180,407;   Date Range: 3/15/97 - 9/30/14
 
SHARE

PRINT THIS DATA

[ ← Previous Day ]
WEATHER ALMANAC - MARCH 19, 2013
[ Next Day → ]
[ °C ]   °F
Weather ElementAverageHighLow
Temperature51.8 °F60.8 °F (1:00 am)42.8 °F (10:00 pm)
Dewpoint44.8 °F57 °F (8:00 am)41 °F (9:00 pm)
Humidity77.1 %100 % (8:00 am)51 % (11:00 am)
Barometer29.99 in30.12 in (11:00 pm)29.83 in (1:00 am)
Wind Speed13.7 mph22.4 mph (2:00 pm)
Weather ElementAverage
Visibility6 mi
Wind DirectionWNW (296.5 °)

Weather ElementTotal
Precipitation---
Heating Degree Days13.2 (Base 65)
Growing Degree Days1.8 (Base 50)
Averaged from 37 records on March 19, 2013
WEATHER CONDITIONS BREAKOUT
WIND DIRECTION BREAKOUT
WEATHER BY HOUR - MARCH 19, 2013
[ °C ]   °F
Local TimeTemperatureDewpointHumidityBarometerVisibilityWind DirectionWind SpeedGust SpeedPrecipitationEventsConditions
1:00 AM60.8 °F51.8 °F72 %29.83 in6.2 miWNW (300°)15.7 mphOvercast
2:00 AM60.0 °F52.0 °F67 %29.84 in6.0 miWNW (300°)8.9 mphOvercast
2:00 AM59.0 °F51.8 °F77 %29.86 in6.2 miWNW (300°)8.9 mphOvercast
3:00 AM59.0 °F50.0 °F72 %29.86 in6.2 miNW (310°)11.2 mphOvercast
4:00 AM57.2 °F50.0 °F77 %29.89 in6.2 miWNW (300°)6.7 mphOvercast
5:00 AM59.0 °F48.2 °F67 %29.89 in6.2 miWNW (290°)6.7 mphOvercast
5:00 AM58.0 °F49.0 °F63 %29.89 in6.0 miWest (280°)4.5 mphOvercast
6:00 AM59.0 °F48.2 °F67 %29.92 in6.2 miWNW (300°)8.9 mphOvercast
7:00 AM59.0 °F44.6 °F59 %29.95 in6.2 miWest (280°)8.9 mphOvercast
8:00 AM57.2 °F46.4 °F67 %29.98 in6.2 miWNW (290°)6.7 mphOvercast
8:00 AM57.0 °F57.0 °F100 %29.95 in6.0 miWest (280°)4.5 mphOvercast
9:00 AM57.2 °F44.6 °F63 %29.98 in6.2 miWNW (300°)15.7 mphOvercast
10:00 AM55.4 °F46.4 °F72 %30.01 in6.2 miWNW (300°)13.4 mphOvercast
11:00 AM58.0 °F45.0 °F51 %30.00 in6.0 miWNW (300°)17.9 mphOvercast
11:00 AM57.2 °F42.8 °F59 %30.01 in6.2 miWNW (290°)17.9 mphOvercast
12:00 PM60.8 °F42.8 °F52 %29.98 in6.2 miWNW (300°)15.7 mphOvercast
1:00 PM59.0 °F42.8 °F55 %29.98 in6.2 miWNW (290°)17.9 mphOvercast
2:00 PM55.4 °F44.6 °F67 %29.98 in6.2 miWNW (290°)20.1 mphOvercast
2:00 PM56.0 °F43.0 °F52 %29.99 in6.0 miWNW (300°)22.4 mphOvercast
3:00 PM53.6 °F42.8 °F67 %29.98 in6.2 miWNW (300°)17.9 mphOvercast
4:00 PM50.0 °F42.8 °F76 %29.98 in6.2 miWNW (290°)17.9 mphOvercast
5:00 PM47.0 °F44.0 °F83 %30.04 in2.0 miNW (310°)15.7 mphRainLight Rain Showers
5:00 PM46.4 °F42.8 °F87 %30.04 in6.2 miWNW (300°)15.7 mphRainLight Rain Showers
6:00 PM46.4 °F42.8 °F87 %30.04 in6.2 miWNW (290°)20.1 mphRainLight Rain Showers
6:30 PM44.6 °F42.8 °F93 %30.04 in6.2 miWNW (290°)20.1 mphRainLight Rain Showers
7:00 PM44.6 °F42.8 °F93 %30.04 in6.2 miWNW (290°)17.9 mphRainLight Rain Showers
7:30 PM44.6 °F42.8 °F93 %30.06 in6.2 miWNW (300°)17.9 mphRainLight Rain Showers
8:00 PM44.6 °F42.8 °F93 %30.06 in6.2 miWNW (300°)15.7 mphRainLight Rain Showers
8:00 PM44.0 °F42.0 °F92 %30.09 in6.0 miWNW (300°)13.4 mphRainLight Rain Showers
8:30 PM44.6 °F42.8 °F93 %30.06 in6.2 miWNW (300°)13.4 mphRainLight Rain Showers
9:00 PM44.6 °F41.0 °F87 %30.06 in6.2 miWNW (300°)15.7 mphRainLight Rain Showers
9:30 PM44.6 °F41.0 °F87 %30.09 in6.2 miWNW (300°)13.4 mphRainLight Rain Showers
10:00 PM42.8 °F41.0 °F93 %30.06 in6.2 miWNW (290°)13.4 mphRainLight Rain Showers
10:30 PM42.8 °F41.0 °F93 %30.06 in6.2 miWNW (300°)11.2 mphRainLight Rain Showers
11:00 PM43.0 °F41.0 °F90 %30.12 in6.0 miNW (310°)11.2 mphRainLight Rain
11:00 PM42.8 °F41.0 °F93 %30.06 in6.2 miWNW (300°)13.4 mphRainLight Rain
11:30 PM42.8 °F41.0 °F93 %30.06 in6.2 miWNW (300°)11.2 mphRainLight Rain
Hourly data recorded from UTAA, located miles away from Ashgabat, Turkmenistan







STORIES FROM OUR PARTNERS